Showing default

AURORA 1, 2876

Orbit data source: Space-Track

AURORA 1, 2876 is an American payload satellite in LEO that was launched on Thu, 29 Jun 1967 UTC via a THOR BURNER 2 launch vehicle from the Air Force Western Test Range (AFWTR). Payload-class satellites include a variety of spacecraft equipped with specific instruments for various scientific and technological missions. These include communications satellites like Starlink; space stations such as the ISS; scientific satellites like the Hubble; Earth observation satellites from companies like Planet Labs, Umbra, and HawkEye 360; GPS; miniature CubeSats for education and research; and military/defense satellites.

Loading next visibility...
Identifier
2876, 1967-065B
Orbit
LEO
Country
Flag of USUS
Related business
Manufacturer
Rice
Mission
Spacecraft
Bus & Motor
RICE AURORA, Unknown motor
Mass
21 kg wet, 21 kg dry
Launch date (UTC)
1967-06-29 (59 years ago)
Launch vehicle
THOR BURNER 2
Launch site
Air Force Western Test Range (AFWTR)
Object type
Payload
Rocket body
Debris
Shape & HBR
Unknown
Radar Cross Section
Medium (>0.1 m² and <1 m²)

Expand to show TLE details & history
Last TLE update: 10 hours ago

TLE from 10 hours ago
0 AURORA 1
1 02876U 67065B   26035.18205243  .00000022  00000-0  13109-1 0  9997
2 02876  89.9942 313.3874 0070209 231.5697 127.8822  8.36560273378486
Epoch: 2026-02-04T04:22Z
TLE epoch observation values (Epoch: 2026-02-04T04:22:09.329Z)
Latitude
Longitude
113.49622°
Altitude
3,918.828 km
Speed
6.209 km/s
True Right ascension
20h 53m 32s
True Declination
0° 00' 00"
Sunlit
Object was in daylight at epoch
Visualization orbit readout
Latitude
Unknown
Longitude
Unknown
Altitude
Unknown
Speed
Unknown
Apparent Right ascension
Unknown
Apparent Declination
Unknown
Sunlit
N/A
Visualization observer readout
Local Sidereal Time
16:31:34
Azimuth
Unknown
Elevation
Unknown
Doppler factor
Unknown
Orbital elements
Apogee altitude
3,941.983 km
Perigee altitude
3,798.08 km
Semi-major axis
10,248.169 km
Eccentricity
0.00702
Inclination
89.9942°
RAAN
313.3874°
Arg. of periapsis
231.5697°
True anomaly
128.51378°
Mean anomaly
127.8822°
Eccentric anomaly
128.19833°
Mean motion
2.09206 °/min
Orbital period
172.08 mins
BSTAR
0.013109
Loading maneuver chart data...
Computing Atmospheric mass density...
Loading historical data...
Loading historical data...
Loading historical data...
Loading historical data...
Loading historical data...
Loading historical data...
Loading historical data...
Other satellites on launch #65 in the year 1967 (1967-06-29 UTC)

Documentation

Showing up to 5 results
|